GW4729 Weather Reports


time (UTC)temp
F
wind
direction
speed
knots
gust
knots
rain 1hr
in
rain 24hr
in
rain mn
in
humidity
%
barometer
mb
20260504050311 38 308 0.0 0.0 0.00 0.00 0.00 85 1017.0
20260504045808 38 308 0.0 0.0 0.00 0.00 0.00 86 1017.2
20260504045308 39 308 0.0 0.0 0.00 0.00 0.00 84 1017.5
20260504044806 40 308 0.0 0.0 0.00 0.00 0.00 84 1017.5
20260504044303 40 308 0.0 0.0 0.00 0.00 0.00 82 1017.1
20260504043800 40 308 0.0 0.0 0.00 0.00 0.00 81 1017.2
20260504043257 39 308 0.0 0.0 0.00 0.00 0.00 83 1017.2
20260504042755 39 308 0.0 0.0 0.00 0.00 0.00 84 1017.2
20260504042251 38 308 0.0 0.0 0.00 0.00 0.00 83 1017.4
20260504041747 38 308 0.0 0.0 0.00 0.00 0.00 84 1017.1
20260504041243 39 308 0.0 0.9 0.00 0.00 0.00 86 1017.2
20260504040739 39 309 0.0 0.0 0.00 0.00 0.00 84 1017.2
20260504040237 39 309 0.0 0.0 0.00 0.00 0.00 82 1017.0
20260504035733 39 309 0.0 0.0 0.00 0.00 0.00 81 1017.2
20260504035230 39 309 0.0 0.0 0.00 0.00 0.00 84 1017.0
20260504034728 40 309 0.0 0.0 0.00 0.00 0.00 81 1016.8
20260504034225 40 309 0.0 0.0 0.00 0.00 0.00 78 1016.9
20260504033723 41 309 0.0 0.0 0.00 0.00 0.00 79 1016.9
20260504033220 41 309 0.0 0.0 0.00 0.00 0.00 76 1017.0
20260504032717 41 309 0.0 0.0 0.00 0.00 0.00 76 1016.9
20260504032214 42 309 0.0 0.0 0.00 0.00 0.00 76 1016.8
20260504031710 42 309 0.0 0.0 0.00 0.00 0.00 75 1016.7
20260504031208 42 309 0.0 0.0 0.00 0.00 0.00 76 1016.9
20260504030703 42 309 0.0 0.0 0.00 0.00 0.00 74 1016.9
20260504030201 42 309 0.0 0.0 0.00 0.00 0.00 75 1016.8
20260504025657 41 309 0.0 0.0 0.00 0.00 0.00 76 1016.7
20260504025154 42 309 0.0 0.0 0.00 0.00 0.00 77 1016.8
20260504024651 42 309 0.0 0.0 0.00 0.00 0.00 73 1016.8
20260504024148 42 309 0.0 0.0 0.00 0.00 0.00 72 1016.9
20260504023644 42 309 0.0 0.0 0.00 0.00 0.00 71 1016.6
20260504023140 42 309 0.0 0.0 0.00 0.00 0.00 70 1016.7
20260504022637 42 309 0.0 0.0 0.00 0.00 0.00 72 1016.6
20260504022133 43 309 0.0 0.0 0.00 0.00 0.00 75 1016.5
20260504021631 44 309 0.0 0.0 0.00 0.00 0.00 67 1016.6
20260504021127 44 309 0.0 0.0 0.00 0.00 0.00 67 1016.3
20260504020625 45 309 0.0 0.0 0.00 0.00 0.00 69 1016.2
20260504020120 46 309 0.0 0.0 0.00 0.00 0.00 57 1016.4
20260504015617 46 309 0.0 0.9 0.00 0.00 0.00 66 1016.1
20260504015113 46 309 0.0 0.0 0.00 0.00 0.00 62 1016.1
20260504014609 46 309 0.0 0.0 0.00 0.00 0.00 63 1016.2
20260504014107 46 309 0.0 0.0 0.00 0.00 0.00 59 1016.3
20260504013604 46 309 0.0 0.0 0.00 0.00 0.00 60 1016.2
20260504013101 46 309 0.0 0.0 0.00 0.00 0.00 63 1016.1
20260504012558 48 309 0.0 0.0 0.00 0.00 0.00 60 1016.2
20260504012056 49 309 0.0 0.0 0.00 0.00 0.00 53 1016.1
20260504011553 50 309 0.0 0.0 0.00 0.00 0.00 47 1016.0
20260504011049 50 309 0.0 0.0 0.00 0.00 0.00 46 1016.0
20260504010544 50 309 0.0 0.0 0.00 0.00 0.00 46 1015.9
20260504010041 51 309 0.0 0.0 0.00 0.00 0.00 48 1016.0
20260504005538 52 309 0.0 0.0 0.00 0.00 0.00 48 1016.0
20260504005035 52 309 0.0 0.0 0.00 0.00 0.00 43 1015.8
20260504004533 52 309 0.0 0.0 0.00 0.00 0.00 44 1015.8
20260504004030 52 309 0.0 0.0 0.00 0.00 0.00 46 1016.0
20260504003526 53 309 0.0 0.0 0.00 0.00 0.00 47 1015.9
20260504003023 53 309 0.0 0.9 0.00 0.00 0.00 43 1015.8
20260504002520 55 263 0.0 0.0 0.00 0.00 0.00 41 1015.9
20260504002017 55 263 0.0 0.9 0.00 0.00 0.00 39 1015.7
20260504001515 56 263 0.0 0.0 0.00 0.00 0.00 41 1015.8
20260504001011 56 263 0.0 0.0 0.00 0.00 0.00 37 1016.0
20260504000508 57 263 0.0 0.0 0.00 0.00 0.00 37 1015.9
20260504000005 57 263 0.0 0.0 0.00 0.00 0.00 36 1015.8
20260503235503 58 263 0.9 0.9 0.00 0.00 0.00 36 1015.7
20260503235000 58 263 0.9 0.9 0.00 0.00 0.00 37 1015.5
20260503234457 59 266 0.9 1.7 0.00 0.00 0.00 35 1015.6
20260503233956 60 267 0.9 1.7 0.00 0.00 0.00 34 1015.7
20260503233452 61 267 1.7 1.7 0.00 0.00 0.00 32 1015.5
20260503232948 61 278 2.6 2.6 0.00 0.00 0.00 31 1015.6
20260503232445 62 262 2.6 3.5 0.00 0.00 0.00 31 1015.4
20260503231943 62 286 1.7 3.5 0.00 0.00 0.00 30 1015.5
20260503231440 61 279 1.7 2.6 0.00 0.00 0.00 32 1015.4
20260503230937 61 265 1.7 5.2 0.00 0.00 0.00 33 1015.4
20260503230433 62 276 3.5 5.2 0.00 0.00 0.00 31 1015.3
20260503225931 61 263 2.6 3.5 0.00 0.00 0.00 31 1015.5
20260503225427 61 290 7.0 8.7 0.00 0.00 0.00 29 1015.5
20260503224923 61 263 2.6 7.8 0.00 0.00 0.00 30 1015.3
20260503224420 62 267 3.5 7.0 0.00 0.00 0.00 31 1015.2
20260503223918 62 283 3.5 3.5 0.00 0.00 0.00 30 1015.0
20260503223416 62 270 1.7 3.5 0.00 0.00 0.00 31 1015.5
20260503222916 62 255 2.6 6.1 0.00 0.00 0.00 32 1015.2
20260503222415 61 267 3.5 3.5 0.00 0.00 0.00 31 1015.3
20260503221913 61 262 3.5 7.8 0.00 0.00 0.00 30 1015.3
20260503221411 62 284 6.1 8.7 0.00 0.00 0.00 29 1015.3
20260503220907 62 252 5.2 6.1 0.00 0.00 0.00 31 1015.4
20260503220404 62 292 4.3 6.1 0.00 0.00 0.00 32 1015.5
20260503215900 62 256 3.5 5.2 0.00 0.00 0.00 32 1015.6
20260503215358 62 271 3.5 7.8 0.00 0.00 0.00 31 1015.6
20260503214855 62 268 1.7 2.6 0.00 0.00 0.00 32 1015.4
20260503214352 62 276 3.5 7.8 0.00 0.00 0.00 31 1015.6
20260503213850 61 259 1.7 5.2 0.00 0.00 0.00 33 1015.5
20260503213348 61 274 5.2 6.1 0.00 0.00 0.00 30 1015.5
20260503212844 62 247 6.1 7.8 0.00 0.00 0.00 31 1015.5
20260503212342 62 262 3.5 7.0 0.00 0.00 0.00 30 1015.6
20260503211839 62 249 3.5 7.0 0.00 0.00 0.00 32 1015.5
20260503211336 62 257 2.6 7.8 0.00 0.00 0.00 31 1015.3
20260503210831 61 282 2.6 6.1 0.00 0.00 0.00 31 1015.6
20260503210328 61 276 4.3 7.0 0.00 0.00 0.00 31 1015.6
20260503205823 61 265 5.2 11.3 0.00 0.00 0.00 32 1015.5
20260503205320 62 274 7.8 8.7 0.00 0.00 0.00 31 1015.4
20260503204817 62 322 4.3 8.7 0.00 0.00 0.00 30 1015.5
20260503204314 62 289 1.7 6.1 0.00 0.00 0.00 32 1015.4
20260503203811 62 288 5.2 7.0 0.00 0.00 0.00 32 1015.7
20260503203309 62 249 5.2 7.8 0.00 0.00 0.00 30 1015.6
20260503202805 62 260 6.1 7.8 0.00 0.00 0.00 31 1015.5
20260503202304 62 315 4.3 7.8 0.00 0.00 0.00 31 1015.6
20260503201801 61 340 7.0 11.3 0.00 0.00 0.00 35 1015.8
20260503201258 61 258 3.5 5.2 0.00 0.00 0.00 34 1015.7
20260503200755 61 277 7.8 8.7 0.00 0.00 0.00 30 1015.8
20260503200251 62 271 1.7 2.6 0.00 0.00 0.00 32 1015.8
20260503195748 62 275 1.7 2.6 0.00 0.00 0.00 33 1016.0
20260503195245 62 328 4.3 5.2 0.00 0.00 0.00 34 1016.0
20260503194743 60 313 0.9 1.7 0.00 0.00 0.00 38 1016.2
20260503194238 61 233 4.3 7.0 0.00 0.00 0.00 31 1016.2
20260503193735 62 247 4.3 7.8 0.00 0.00 0.00 32 1016.2
20260503193231 62 333 1.7 3.5 0.00 0.00 0.00 35 1016.4
20260503192727 61 287 1.7 2.6 0.00 0.00 0.00 34 1016.2
20260503192222 61 269 2.6 3.5 0.00 0.00 0.00 31 1016.5
20260503191719 62 265 2.6 6.1 0.00 0.00 0.00 34 1016.5
20260503191216 61 272 1.7 7.0 0.00 0.00 0.00 32 1016.7
20260503190713 62 252 1.7 5.2 0.00 0.00 0.00 29 1016.7
20260503190209 61 300 5.2 8.7 0.00 0.00 0.00 29 1016.8
20260503185707 62 258 4.3 6.1 0.00 0.00 0.00 31 1016.8
20260503185202 60 261 1.7 6.1 0.00 0.00 0.00 33 1017.0
20260503184657 60 261 1.7 8.7 0.00 0.00 0.00 35 1017.1
20260503184154 59 269 4.3 6.1 0.00 0.00 0.00 31 1017.1
20260503183649 59 278 5.2 6.1 0.00 0.00 0.00 32 1017.2
20260503183147 60 269 5.2 8.7 0.00 0.00 0.00 32 1017.5
20260503182645 59 317 5.2 6.1 0.00 0.00 0.00 33 1017.2
20260503182144 60 273 2.6 6.1 0.00 0.00 0.00 37 1017.4
20260503181640 61 288 3.5 5.2 0.00 0.00 0.00 31 1017.1
20260503181137 59 289 3.5 7.0 0.00 0.00 0.00 38 1017.2
20260503180634 58 272 1.7 3.5 0.00 0.00 0.00 36 1017.5
20260503180132 58 298 2.6 11.3 0.00 0.00 0.00 38 1017.5
20260503175629 59 256 3.5 7.0 0.00 0.00 0.00 33 1017.4
20260503175125 58 275 5.2 8.7 0.00 0.00 0.00 35 1017.6
20260503174622 57 283 7.0 9.6 0.00 0.00 0.00 35 1017.8
20260503174120 57 318 5.2 9.6 0.00 0.00 0.00 37 1017.7
20260503173614 56 257 7.8 8.7 0.00 0.00 0.00 37 1017.6
20260503173111 58 289 1.7 7.0 0.00 0.00 0.00 43 1017.8
20260503172608 56 271 0.0 5.2 0.00 0.00 0.00 42 1017.8
20260503172106 56 291 5.2 8.7 0.00 0.00 0.00 37 1018.0
20260503171601 58 297 7.0 8.7 0.00 0.00 0.00 36 1018.0
20260503171059 57 272 2.6 6.1 0.00 0.00 0.00 37 1017.9
20260503170555 57 272 2.6 3.5 0.00 0.00 0.00 37 1017.8
20260503150948 53 311 1.7 1.7 0.00 0.00 0.00 52 1018.9
20260503150444 53 303 4.3 8.7 0.00 0.00 0.00 46 1019.0
20260503131337 48 294 1.7 6.1 0.00 0.00 0.00 56 1019.4
20260503130835 47 313 2.6 5.2 0.00 0.00 0.00 59 1019.4
20260503130332 47 330 1.7 2.6 0.00 0.00 0.00 59 1019.5
20260503110726 34 294 0.0 0.0 0.00 0.00 0.00 93 1018.6
20260503110223 34 294 0.0 0.0 0.00 0.00 0.00 93 1018.4
20260503100149 34 294 0.0 0.0 0.00 0.00 0.00 91 1017.7
20260503090108 37 294 0.0 0.0 0.00 0.00 0.00 83 1017.2
20260503081544 40 305 0.0 0.9 0.00 0.00 0.00 77 1017.0
20260503081042 40 278 0.9 1.7 0.00 0.00 0.00 76 1017.0
20260503080537 40 278 0.9 1.7 0.00 0.00 0.00 76 1016.9
20260503072512 40 297 0.0 0.0 0.00 0.00 0.00 76 1016.6
20260503072008 40 297 0.0 0.0 0.00 0.00 0.00 76 1016.5
20260503071505 40 305 0.9 1.7 0.00 0.00 0.00 77 1016.4
20260503071001 40 313 0.0 0.9 0.00 0.00 0.00 76 1016.4
20260503070458 40 313 0.0 0.0 0.00 0.00 0.00 76 1016.4